Location: Northam
(31.6525°S, 116.6655°E)
Time: 18:52:40
(UTC+08:00)

AAUSAT CUBESAT 2 - Pass Details

Date: 01 August 2021
Orbit: 572 x 587 km, 97.5° (Epoch: 18 September)

Event Time Altitude Azimuth Distance (km) Brightness Sun altitude
Rises 05:09:47 0° 2° (N) 2,776 ? -23.9°
Reaches altitude 10° 05:11:57 10° 357° (N) 1,888 ? -23.5°
Enters shadow 05:13:41 24° 347° (NNW) 1,228 ? -23.1°
